Tracking 20382 objects as of 24-Feb-2020
HD Live streaming from Space Station
objects crossing your sky now
Track the group of recently launched Starlink satellites

METEOR 1-14

Track METEOR 1-14 now!
10-day predictions
METEOR 1-14 is classified as:


NORAD ID: 6392
Int'l Code: 1973-015A
Perigee: 856.5 km
Apogee: 892.9 km
Inclination: 81.2 °
Period: 102.3 minutes
Semi major axis: 7245 km
RCS: 4.8967 m2 (large)
Launch date: March 20, 1973
Source: Commonwealth of Independent States (former USSR) (CIS)
Launch site: PLESETSK MISSILE AND SPACE COMPLEX (PKMTR)
aabbcc
Your satellite tracking list
Your tracking list is empty




NASA's NSSDC Master Catalog

Two Line Element Set (TLE):
1  6392U 73015A   20054.39602229 +.00000175 +00000-0 +96397-4 0  9991
2  6392 081.2465 005.8327 0025124 238.1162 121.7563 14.07605569408279
Source of the keplerian elements: AFSPC